Voltar ao catálogo

CZ-3C DEB

LostGTO
NORAD 40867·DEBRIS·🇨🇳 China

Lançado Feb 24, 2012 de Xichang Satellite Launch Center

Loading…

TLE

ObsoletoSource: Space-Track

Época: Oct 24, 2024, 00:27 UTC

1 40867U 12008AH  24298.01940813  .00000293  00000-0  37047-2 0  9994
2 40867  21.4063 188.7513 7183143 222.3329  51.5447  2.25785042 94415

Acompanhe CZ-3C DEB em tempo real com AllMySat

Download on the App Store